UAE23C OMDB-FACT

Flight info

Callsign UAE23C
Flight time N/A
Altitude 32000
Route ANVIX R401 GIDIS G783 UKRAG/N0495F310 L710 KUKDI/N0495F320 B400 VEDET UL437 MOGDU/N0495F340 UL437 DVL UM315 USUBI UR409 AXILA/N0485F360 UR409 VMV UP312 GWV/N0448F280 UA405 UTRUK/N0483F360 DCT RAGUL DCT CSV UZ26 ERDAS ERDAS1B
Aircraft B77W/H-SDE1E2E3FGHIJ2J3J4J5M1RWXY/LB1D1

Departure

Time 2026-04-24 23:37
Airport Dubai International Airport (OMDB)

Arrival

Time N/A
Airport Cape Town International Airport (FACT)
Time Latitude Longitude Altitude Speed Heading
2026-04-24 23:13 25.24620 55.36363 38 ft 0 kts 31°
2026-04-24 23:18 25.24618 55.36362 38 ft 1 kts 31°
2026-04-24 23:18 25.24605 55.36354 37 ft 2 kts 18°
2026-04-24 23:18 25.24590 55.36351 37 ft 2 kts
2026-04-24 23:18 25.24574 55.36350 36 ft 2 kts 355°
2026-04-24 23:19 25.24559 55.36352 36 ft 2 kts 345°
2026-04-24 23:19 25.24544 55.36358 37 ft 2 kts 334°
2026-04-24 23:19 25.24531 55.36366 37 ft 2 kts 323°
2026-04-24 23:19 25.24519 55.36378 38 ft 2 kts 312°
2026-04-24 23:20 25.24510 55.36391 38 ft 2 kts 301°
2026-04-24 23:20 25.24506 55.36399 39 ft 0 kts 300°
2026-04-24 23:23 25.24507 55.36396 39 ft 2 kts 300°
2026-04-24 23:24 25.24533 55.36349 36 ft 11 kts 302°
2026-04-24 23:24 25.24587 55.36253 31 ft 15 kts 302°
2026-04-24 23:24 25.24654 55.36137 27 ft 13 kts 302°
2026-04-24 23:24 25.24712 55.36033 25 ft 16 kts 301°
2026-04-24 23:25 25.24778 55.35914 26 ft 18 kts 301°
2026-04-24 23:25 25.24851 55.35787 27 ft 19 kts 303°
2026-04-24 23:25 25.24928 55.35657 27 ft 19 kts 303°
2026-04-24 23:25 25.25004 55.35525 27 ft 20 kts 302°
2026-04-24 23:26 25.25088 55.35379 25 ft 23 kts 302°
2026-04-24 23:26 25.25182 55.35228 24 ft 23 kts 305°
2026-04-24 23:26 25.25265 55.35090 22 ft 16 kts 302°
2026-04-24 23:26 25.25326 55.34976 21 ft 18 kts 301°
2026-04-24 23:27 25.25434 55.34899 21 ft 19 kts
2026-04-24 23:27 25.25533 55.34949 21 ft 15 kts 31°
2026-04-24 23:27 25.25550 55.34960 21 ft 0 kts 31°
2026-04-24 23:27 25.25560 55.34967 21 ft 4 kts 31°
2026-04-24 23:28 25.25607 55.34999 21 ft 10 kts 31°
2026-04-24 23:28 25.25680 55.35048 21 ft 13 kts 31°
2026-04-24 23:28 25.25732 55.35126 22 ft 14 kts 82°
2026-04-24 23:28 25.25783 55.35231 19 ft 17 kts 32°
2026-04-24 23:29 25.25883 55.35297 19 ft 17 kts 31°
2026-04-24 23:29 25.25982 55.35389 15 ft 19 kts 64°
2026-04-24 23:29 25.25976 55.35553 11 ft 23 kts 118°
2026-04-24 23:29 25.25951 55.35600 12 ft 0 kts 121°
2026-04-24 23:30 25.25948 55.35606 12 ft 3 kts 121°
2026-04-24 23:30 25.25927 55.35641 12 ft 7 kts 122°
2026-04-24 23:30 25.25894 55.35700 13 ft 9 kts 122°
2026-04-24 23:30 25.25853 55.35772 16 ft 12 kts 122°
2026-04-24 23:31 25.25805 55.35858 18 ft 13 kts 121°
2026-04-24 23:31 25.25748 55.35961 19 ft 16 kts 121°
2026-04-24 23:31 25.25685 55.36076 22 ft 17 kts 121°
2026-04-24 23:31 25.25621 55.36193 25 ft 18 kts 121°
2026-04-24 23:32 25.25552 55.36317 29 ft 18 kts 122°
2026-04-24 23:32 25.25482 55.36443 33 ft 18 kts 121°
2026-04-24 23:32 25.25428 55.36539 38 ft 18 kts 121°
2026-04-24 23:32 25.25391 55.36606 42 ft 17 kts 121°
2026-04-24 23:33 25.25330 55.36720 48 ft 16 kts 121°
2026-04-24 23:33 25.25270 55.36830 52 ft 16 kts 121°
2026-04-24 23:33 25.25206 55.36941 55 ft 17 kts 122°
2026-04-24 23:33 25.25144 55.37049 57 ft 17 kts 122°
2026-04-24 23:34 25.25076 55.37174 57 ft 19 kts 121°
2026-04-24 23:34 25.24996 55.37322 54 ft 23 kts 121°
2026-04-24 23:34 25.24906 55.37485 49 ft 26 kts 121°
2026-04-24 23:34 25.24802 55.37671 44 ft 29 kts 121°
2026-04-24 23:35 25.24713 55.37828 43 ft 21 kts 122°
2026-04-24 23:35 25.24675 55.37920 42 ft 13 kts 85°
2026-04-24 23:35 25.24731 55.37993 39 ft 14 kts 32°
2026-04-24 23:35 25.24803 55.38023 37 ft 7 kts 343°
2026-04-24 23:36 25.24843 55.37964 38 ft 10 kts 294°
2026-04-24 23:36 25.24870 55.37909 38 ft 11 kts 300°
2026-04-24 23:36 25.24991 55.37693 40 ft 68 kts 301°
2026-04-24 23:36 25.25394 55.36966 47 ft 151 kts 301°
2026-04-24 23:37 25.26110 55.35675 203 ft 221 kts 301°
2026-04-24 23:37 25.26953 55.34110 905 ft 243 kts 300°
2026-04-24 23:37 25.28754 55.30682 2223 ft 256 kts 300°
2026-04-24 23:38 25.29522 55.28862 2858 ft 262 kts 284°
2026-04-24 23:38 25.29603 55.26850 3497 ft 262 kts 261°
2026-04-24 23:38 25.29084 55.24887 4103 ft 264 kts 243°
2026-04-24 23:38 25.28221 55.23016 4775 ft 275 kts 240°
2026-04-24 23:39 25.27200 55.21107 5456 ft 286 kts 232°
2026-04-24 23:39 25.25897 55.19409 6091 ft 288 kts 220°
2026-04-24 23:39 25.24217 55.18160 6745 ft 286 kts 201°
2026-04-24 23:39 25.22260 55.17518 7015 ft 285 kts 185°
2026-04-24 23:40 25.20266 55.17585 7294 ft 276 kts 165°
2026-04-24 23:40 25.18455 55.18381 8043 ft 278 kts 146°
2026-04-24 23:40 25.17048 55.19939 8766 ft 278 kts 120°
2026-04-24 23:40 25.16187 55.21918 9497 ft 282 kts 116°
2026-04-24 23:41 25.15191 55.23984 10251 ft 304 kts 118°
2026-04-24 23:41 25.14160 55.26141 10966 ft 310 kts 118°
2026-04-24 23:41 25.13119 55.28311 11662 ft 313 kts 118°
2026-04-24 23:41 25.12070 55.30492 12355 ft 316 kts 118°
2026-04-24 23:42 25.11007 55.32702 13052 ft 318 kts 118°
2026-04-24 23:42 25.10020 55.34985 13696 ft 322 kts 114°
2026-04-24 23:42 25.09074 55.37318 14334 ft 323 kts 115°
2026-04-24 23:42 25.08116 55.39628 14935 ft 327 kts 115°
2026-04-24 23:43 25.07147 55.42004 14991 ft 329 kts 114°
2026-04-24 23:43 25.06226 55.44408 14998 ft 328 kts 114°
2026-04-24 23:43 25.05301 55.46800 15003 ft 327 kts 114°
2026-04-24 23:43 25.04382 55.49184 15006 ft 327 kts 113°
2026-04-24 23:44 25.03467 55.51557 15009 ft 327 kts 113°
2026-04-24 23:44 25.02549 55.53936 15012 ft 327 kts 113°
2026-04-24 23:44 25.01524 55.56246 15013 ft 327 kts 120°
2026-04-24 23:44 25.00296 55.58470 15019 ft 328 kts 120°
2026-04-24 23:45 24.99107 55.60715 15017 ft 328 kts 120°
2026-04-24 23:45 24.97890 55.62937 15018 ft 329 kts 122°
2026-04-24 23:45 24.96508 55.65047 15021 ft 330 kts 126°
2026-04-24 23:45 24.95131 55.67176 15023 ft 330 kts 124°
2026-04-24 23:46 24.93766 55.69317 15022 ft 330 kts 124°
2026-04-24 23:46 24.92402 55.71457 15021 ft 330 kts 124°
2026-04-24 23:46 24.91055 55.73577 15643 ft 338 kts 124°
2026-04-24 23:46 24.89610 55.75854 16479 ft 369 kts 124°
2026-04-24 23:47 24.88017 55.78362 17305 ft 396 kts 125°
2026-04-24 23:47 24.86374 55.80946 18073 ft 406 kts 125°
2026-04-24 23:47 24.84696 55.83583 18830 ft 410 kts 125°
2026-04-24 23:47 24.82998 55.86237 19584 ft 414 kts 127°
2026-04-24 23:48 24.81040 55.88727 20341 ft 419 kts 137°
2026-04-24 23:48 24.78684 55.90780 21104 ft 423 kts 147°
2026-04-24 23:48 24.76008 55.92339 21865 ft 426 kts 158°
2026-04-24 23:48 24.73086 55.93353 22629 ft 430 kts 168°
2026-04-24 23:49 24.70070 55.93765 23379 ft 434 kts 178°
2026-04-24 23:49 24.66923 55.93630 24152 ft 438 kts 184°
2026-04-24 23:49 24.63807 55.93187 24907 ft 442 kts 191°
2026-04-24 23:50 24.57237 55.90536 26577 ft 452 kts 210°
2026-04-24 23:50 24.54624 55.88467 27333 ft 457 kts 220°
2026-04-24 23:50 24.52243 55.86002 28094 ft 461 kts 222°
2026-04-24 23:50 24.49780 55.83563 28851 ft 465 kts 221°
2026-04-24 23:51 24.47291 55.81134 29604 ft 468 kts 221°
2026-04-24 23:51 24.44777 55.78700 30356 ft 475 kts 221°
2026-04-24 23:51 24.42216 55.76231 31110 ft 479 kts 221°
2026-04-24 23:51 24.39644 55.73757 31850 ft 484 kts 222°
2026-04-24 23:52 24.37024 55.71240 32059 ft 488 kts 222°
2026-04-24 23:52 24.34379 55.68696 32036 ft 486 kts 222°
2026-04-24 23:52 24.29182 55.63745 32044 ft 485 kts 219°
2026-04-24 23:53 24.23153 55.59951 32053 ft 490 kts 202°
2026-04-24 23:53 24.16490 55.57825 32042 ft 482 kts 198°
2026-04-24 23:54 24.09839 55.55814 32046 ft 481 kts 198°
2026-04-24 23:54 24.03195 55.53823 32043 ft 482 kts 197°
2026-04-24 23:55 23.96499 55.51828 32044 ft 482 kts 197°
2026-04-24 23:55 23.89870 55.49859 32043 ft 482 kts 197°
2026-04-24 23:56 23.83176 55.47872 32046 ft 482 kts 197°
2026-04-24 23:56 23.76528 55.45898 32047 ft 482 kts 197°
2026-04-24 23:57 23.69887 55.43928 32046 ft 482 kts 197°
2026-04-24 23:57 23.63229 55.41954 32048 ft 482 kts 197°
2026-04-24 23:58 23.56558 55.40001 32045 ft 482 kts 195°
2026-04-24 23:58 23.49657 55.39320 32049 ft 489 kts 179°
2026-04-24 23:59 23.42783 55.40936 32052 ft 494 kts 167°
2026-04-24 23:59 23.35998 55.43122 32046 ft 494 kts 167°
2026-04-25 00:00 23.29204 55.45280 32046 ft 494 kts 167°
2026-04-25 00:00 23.22387 55.47434 32046 ft 493 kts 167°
2026-04-25 00:01 23.15596 55.49575 32045 ft 494 kts 167°
2026-04-25 00:01 23.08810 55.51712 32043 ft 494 kts 167°
2026-04-25 00:02 23.02032 55.53833 32043 ft 493 kts 167°
2026-04-25 00:02 22.95198 55.55928 32044 ft 492 kts 167°
2026-04-25 00:03 22.88440 55.58002 32048 ft 492 kts 166°
2026-04-25 00:03 22.81647 55.60090 32049 ft 492 kts 166°
2026-04-25 00:04 22.74896 55.62161 32049 ft 492 kts 166°
2026-04-25 00:04 22.68071 55.64249 32049 ft 492 kts 166°
2026-04-25 00:05 22.61290 55.66323 32049 ft 492 kts 166°
2026-04-25 00:05 22.54493 55.68405 32048 ft 492 kts 166°
2026-04-25 00:06 22.47709 55.70480 32048 ft 492 kts 166°
2026-04-25 00:06 22.40949 55.72545 32048 ft 492 kts 166°
2026-04-25 00:07 22.34126 55.74627 32048 ft 492 kts 166°
2026-04-25 00:07 22.27385 55.76662 32047 ft 491 kts 168°
2026-04-25 00:08 22.20434 55.77642 32051 ft 490 kts 176°
2026-04-25 00:08 22.13427 55.78372 32047 ft 489 kts 176°
2026-04-25 00:09 22.06468 55.79070 32047 ft 490 kts 176°
2026-04-25 00:09 21.99469 55.79768 32046 ft 489 kts 176°
2026-04-25 00:10 21.92468 55.80463 32046 ft 489 kts 176°
2026-04-25 00:10 21.85482 55.81155 32050 ft 490 kts 176°
2026-04-25 00:11 21.79664 55.81733 32050 ft 489 kts 176°
2026-04-25 00:11 21.71548 55.82536 32049 ft 490 kts 176°
2026-04-25 00:12 21.64537 55.83226 32049 ft 490 kts 176°
2026-04-25 00:12 21.57571 55.83910 32049 ft 489 kts 176°
2026-04-25 00:13 21.50596 55.84595 32048 ft 489 kts 176°
2026-04-25 00:13 21.43583 55.85283 32048 ft 490 kts 176°
2026-04-25 00:14 21.36624 55.85964 32048 ft 489 kts 176°
2026-04-25 00:14 21.29602 55.86650 32048 ft 490 kts 176°
2026-04-25 00:15 21.22637 55.87330 32048 ft 489 kts 176°
2026-04-25 00:15 21.15663 55.88010 32047 ft 490 kts 176°
2026-04-25 00:16 21.08686 55.88687 32047 ft 490 kts 176°
2026-04-25 00:16 21.01659 55.89366 32047 ft 491 kts 175°
2026-04-25 00:17 20.94634 55.90049 32047 ft 494 kts 175°
2026-04-25 00:17 20.87602 55.90736 32050 ft 494 kts 175°
2026-04-25 00:18 20.80570 55.91419 32050 ft 493 kts 175°
2026-04-25 00:18 20.73536 55.92102 32050 ft 493 kts 175°
2026-04-25 00:19 20.66489 55.92784 32048 ft 493 kts 175°
2026-04-25 00:19 20.59443 55.93466 32045 ft 493 kts 175°
2026-04-25 00:20 20.52382 55.94149 32042 ft 493 kts 175°
2026-04-25 00:20 20.45333 55.94830 32040 ft 493 kts 175°
2026-04-25 00:21 20.38287 55.95510 32043 ft 493 kts 175°
2026-04-25 00:21 20.31274 55.96185 32047 ft 493 kts 175°
2026-04-25 00:22 20.24233 55.96856 32048 ft 493 kts 175°
2026-04-25 00:22 20.17215 55.97524 32048 ft 493 kts 175°
2026-04-25 00:23 20.10177 55.98194 32048 ft 493 kts 175°
2026-04-25 00:23 20.05489 55.98461 32047 ft 492 kts 180°
2026-04-25 00:24 19.96067 55.98671 32047 ft 493 kts 179°
2026-04-25 00:24 19.89023 55.98847 32048 ft 492 kts 179°
2026-04-25 00:25 19.81970 55.99023 32050 ft 492 kts 179°
2026-04-25 00:25 19.74946 55.99199 32050 ft 492 kts 179°
2026-04-25 00:26 19.67893 55.99375 32050 ft 492 kts 179°
2026-04-25 00:26 19.60836 55.99551 32049 ft 492 kts 179°
2026-04-25 00:27 19.53737 55.99545 32049 ft 492 kts 185°
2026-04-25 00:27 19.46900 55.97796 32053 ft 493 kts 202°
2026-04-25 00:28 19.40799 55.94029 32054 ft 493 kts 212°
2026-04-25 00:28 19.34708 55.90197 32049 ft 493 kts 210°
2026-04-25 00:29 19.28588 55.86459 32048 ft 493 kts 209°
2026-04-25 00:29 19.22439 55.82731 32048 ft 493 kts 209°
2026-04-25 00:30 19.16264 55.78996 32048 ft 493 kts 209°
2026-04-25 00:30 19.10073 55.75255 32048 ft 493 kts 209°
2026-04-25 00:31 19.03899 55.71529 32047 ft 493 kts 209°
2026-04-25 00:31 18.97764 55.67828 32048 ft 495 kts 209°
2026-04-25 00:32 18.91540 55.64079 32048 ft 497 kts 209°
2026-04-25 00:32 18.85315 55.60333 32050 ft 499 kts 209°
2026-04-25 00:33 18.79084 55.56587 32050 ft 499 kts 209°
2026-04-25 00:33 18.72845 55.52839 32050 ft 499 kts 209°
2026-04-25 00:34 18.66605 55.49093 32050 ft 499 kts 209°
2026-04-25 00:34 18.60388 55.45364 32050 ft 499 kts 209°
2026-04-25 00:35 18.54171 55.41638 32050 ft 499 kts 209°
2026-04-25 00:35 18.47913 55.37891 32050 ft 499 kts 209°
2026-04-25 00:36 18.41670 55.34156 32049 ft 499 kts 208°
2026-04-25 00:36 18.35428 55.30425 32048 ft 499 kts 208°
2026-04-25 00:37 18.29229 55.26725 32048 ft 499 kts 208°
2026-04-25 00:37 18.22972 55.22992 32048 ft 499 kts 208°
2026-04-25 00:38 18.16770 55.19295 32048 ft 499 kts 208°
2026-04-25 00:38 18.10261 55.16033 32053 ft 499 kts 202°
2026-04-25 00:39 18.03694 55.13052 32048 ft 499 kts 202°
2026-04-25 00:39 17.97084 55.10078 32048 ft 499 kts 202°
2026-04-25 00:40 17.90515 55.07129 32048 ft 499 kts 202°
2026-04-25 00:40 17.83929 55.04176 32050 ft 499 kts 202°
2026-04-25 00:41 17.77340 55.01224 32050 ft 499 kts 202°
2026-04-25 00:41 17.70743 54.98271 32049 ft 499 kts 202°
2026-04-25 00:42 17.64143 54.95319 32049 ft 500 kts 202°
2026-04-25 00:42 17.57556 54.92376 32049 ft 500 kts 202°
2026-04-25 00:43 17.50931 54.89417 32049 ft 500 kts 202°
2026-04-25 00:43 17.44326 54.86470 32049 ft 500 kts 202°
2026-04-25 00:44 17.37744 54.83535 32049 ft 500 kts 202°
2026-04-25 00:44 17.31158 54.80601 32049 ft 499 kts 202°
2026-04-25 00:45 17.24765 54.77222 32051 ft 501 kts 212°
2026-04-25 00:45 17.18710 54.73188 32049 ft 501 kts 211°
2026-04-25 00:46 17.12618 54.69117 32049 ft 501 kts 211°
2026-04-25 00:47 17.03502 54.63017 32049 ft 502 kts 211°
2026-04-25 00:47 16.97439 54.58968 32049 ft 505 kts 210°
2026-04-25 00:48 16.91320 54.54886 32053 ft 506 kts 210°
2026-04-25 00:48 16.85181 54.50795 32052 ft 506 kts 210°
2026-04-25 00:49 16.79071 54.46720 32053 ft 506 kts 210°
2026-04-25 00:49 16.72924 54.42625 32053 ft 506 kts 210°
2026-04-25 00:50 16.66774 54.38530 32053 ft 505 kts 210°
2026-04-25 00:50 16.60653 54.34459 32050 ft 505 kts 210°
2026-04-25 00:51 16.54536 54.30392 32048 ft 505 kts 210°
2026-04-25 00:51 16.48411 54.26323 32048 ft 506 kts 210°
2026-04-25 00:52 16.42245 54.22231 32048 ft 506 kts 210°
2026-04-25 00:52 16.36141 54.18183 32048 ft 505 kts 210°
2026-04-25 00:53 16.29980 54.14100 32048 ft 506 kts 210°
2026-04-25 00:53 16.23867 54.10052 32050 ft 505 kts 210°
2026-04-25 00:54 16.17718 54.05983 32046 ft 506 kts 210°
2026-04-25 00:54 16.11611 54.01945 32048 ft 506 kts 210°
2026-04-25 00:55 16.05445 53.97871 32049 ft 506 kts 210°
2026-04-25 00:55 15.99315 53.93824 32045 ft 505 kts 210°
2026-04-25 00:56 15.93162 53.89765 32047 ft 505 kts 210°
2026-04-25 00:56 15.87036 53.85718 32051 ft 506 kts 210°
2026-04-25 00:57 15.80925 53.81635 32050 ft 506 kts 210°
2026-04-25 00:57 15.74785 53.77535 32050 ft 505 kts 210°
2026-04-25 00:58 15.68657 53.73447 32052 ft 506 kts 210°
2026-04-25 00:58 15.62556 53.69379 32051 ft 505 kts 210°
2026-04-25 00:59 15.56419 53.65291 32051 ft 505 kts 210°
2026-04-25 00:59 15.50292 53.61213 32052 ft 506 kts 210°
2026-04-25 01:00 15.44178 53.57145 32050 ft 506 kts 210°
2026-04-25 01:00 15.37989 53.53155 32051 ft 505 kts 210°
2026-04-25 01:01 15.31804 53.49185 32051 ft 505 kts 210°
2026-04-25 01:01 15.25602 53.45207 32051 ft 505 kts 210°
2026-04-25 01:02 15.19429 53.41251 32049 ft 505 kts 210°
2026-04-25 01:02 15.13222 53.37276 32049 ft 505 kts 210°
2026-04-25 01:03 15.07049 53.33326 32047 ft 505 kts 209°
2026-04-25 01:03 15.00874 53.29376 32047 ft 506 kts 209°
2026-04-25 01:04 14.94681 53.25418 32046 ft 506 kts 209°
2026-04-25 01:04 14.88509 53.21475 32048 ft 506 kts 208°
2026-04-25 01:05 14.82284 53.17505 32049 ft 506 kts 208°
2026-04-25 01:05 14.76107 53.13566 32049 ft 506 kts 208°
2026-04-25 01:06 14.69905 53.09613 32049 ft 506 kts 208°
2026-04-25 01:06 14.63718 53.05660 32049 ft 507 kts 209°
2026-04-25 01:07 14.57515 53.01674 32049 ft 507 kts 209°
2026-04-25 01:07 14.51313 52.97693 32049 ft 508 kts 209°
2026-04-25 01:08 14.45108 52.93710 32049 ft 509 kts 209°
2026-04-25 01:08 14.38884 52.89719 32049 ft 509 kts 209°
2026-04-25 01:09 14.32642 52.85718 32049 ft 510 kts 209°
2026-04-25 01:09 14.26401 52.81721 32050 ft 511 kts 209°
2026-04-25 01:10 14.20131 52.77707 32050 ft 511 kts 209°
2026-04-25 01:10 14.13907 52.73725 32050 ft 511 kts 209°
2026-04-25 01:11 14.07650 52.69726 32050 ft 511 kts 209°
2026-04-25 01:11 14.01386 52.65725 32050 ft 511 kts 209°
2026-04-25 01:12 13.95128 52.61729 32050 ft 511 kts 209°
2026-04-25 01:12 13.88875 52.57740 32051 ft 511 kts 209°
2026-04-25 01:13 13.82640 52.53766 32052 ft 511 kts 209°
2026-04-25 01:13 13.76359 52.49764 32052 ft 511 kts 209°
2026-04-25 01:14 13.70122 52.45792 32052 ft 511 kts 209°
2026-04-25 01:14 13.63883 52.41822 32052 ft 511 kts 209°
2026-04-25 01:15 13.57611 52.37833 32052 ft 511 kts 209°
2026-04-25 01:15 13.51366 52.33864 32048 ft 511 kts 209°
2026-04-25 01:16 13.45142 52.29911 32047 ft 511 kts 209°
2026-04-25 01:16 13.38836 52.25909 32050 ft 511 kts 209°
2026-04-25 01:17 13.32565 52.21942 32060 ft 511 kts 209°
2026-04-25 01:17 13.26299 52.17981 32076 ft 511 kts 209°
2026-04-25 01:18 13.20027 52.14019 32086 ft 511 kts 209°
2026-04-25 01:18 13.13751 52.10057 32095 ft 511 kts 209°
2026-04-25 01:19 13.07522 52.06126 32102 ft 510 kts 209°
2026-04-25 01:19 13.01271 52.02184 32102 ft 509 kts 209°
2026-04-25 01:20 12.95041 51.98257 32102 ft 507 kts 209°
2026-04-25 01:20 12.88813 51.94336 32103 ft 508 kts 209°
2026-04-25 01:21 12.82574 51.90409 32104 ft 508 kts 209°
2026-04-25 01:21 12.76386 51.86517 32104 ft 508 kts 209°
2026-04-25 01:22 12.70131 51.82584 32104 ft 508 kts 209°
2026-04-25 01:22 12.63930 51.78688 32105 ft 508 kts 209°
2026-04-25 01:23 12.57689 51.74769 32105 ft 508 kts 209°
2026-04-25 01:23 12.51471 51.70866 32105 ft 508 kts 209°
2026-04-25 01:24 12.45240 51.66958 32105 ft 508 kts 209°
2026-04-25 01:24 12.38986 51.63037 32105 ft 508 kts 209°
2026-04-25 01:25 12.32778 51.59147 32105 ft 508 kts 209°
2026-04-25 01:25 12.26513 51.55225 32105 ft 508 kts 209°
2026-04-25 01:26 12.20298 51.51335 32105 ft 508 kts 209°
2026-04-25 01:26 12.14083 51.47447 32105 ft 508 kts 209°
2026-04-25 01:27 12.07849 51.43550 32105 ft 508 kts 209°
2026-04-25 01:27 12.01587 51.39637 32105 ft 508 kts 209°
2026-04-25 01:28 11.92252 51.33803 32100 ft 507 kts 208°
2026-04-25 01:28 11.85999 51.29899 32102 ft 508 kts 208°
2026-04-25 01:29 11.79797 51.26027 32102 ft 508 kts 208°
2026-04-25 01:29 11.73628 51.22179 32102 ft 508 kts 208°
2026-04-25 01:30 11.67374 51.18279 32102 ft 508 kts 208°
2026-04-25 01:30 11.61125 51.14385 32102 ft 508 kts 208°
2026-04-25 01:31 11.54936 51.10531 32102 ft 508 kts 208°
2026-04-25 01:31 11.48684 51.06638 32103 ft 507 kts 208°
2026-04-25 01:32 11.42483 51.02780 32103 ft 507 kts 208°
2026-04-25 01:32 11.36240 50.98892 32103 ft 507 kts 208°
2026-04-25 01:33 11.30043 50.95033 32103 ft 507 kts 208°
2026-04-25 01:33 11.23815 50.91156 32103 ft 507 kts 208°
2026-04-25 01:34 11.17577 50.87275 32103 ft 507 kts 208°
2026-04-25 01:34 11.11344 50.83398 32103 ft 507 kts 208°
2026-04-25 01:35 11.05136 50.79540 32103 ft 507 kts 208°
2026-04-25 01:35 10.98897 50.75665 32103 ft 504 kts 208°
2026-04-25 01:36 10.92694 50.71816 32102 ft 501 kts 209°
2026-04-25 01:36 10.86568 50.68015 32106 ft 499 kts 209°
2026-04-25 01:37 10.80429 50.64202 32106 ft 498 kts 209°
2026-04-25 01:37 10.74346 50.60430 32105 ft 499 kts 209°
2026-04-25 01:38 10.68187 50.56613 32105 ft 499 kts 209°
2026-04-25 01:38 10.62097 50.52841 32105 ft 499 kts 209°
2026-04-25 01:39 10.55934 50.49025 32105 ft 499 kts 209°
2026-04-25 01:39 10.49802 50.45230 32105 ft 499 kts 209°
2026-04-25 01:40 10.43700 50.41456 32105 ft 499 kts 209°
2026-04-25 01:40 10.37538 50.37645 32099 ft 499 kts 209°
2026-04-25 01:41 10.31427 50.33869 32079 ft 499 kts 209°
2026-04-25 01:41 10.25318 50.30095 32061 ft 499 kts 209°
2026-04-25 01:42 10.19152 50.26289 32034 ft 499 kts 209°
2026-04-25 01:42 10.13022 50.22505 32007 ft 500 kts 209°
2026-04-25 01:43 10.06879 50.18716 31994 ft 500 kts 209°
2026-04-25 01:43 10.00732 50.14926 31993 ft 500 kts 209°
2026-04-25 01:44 9.94589 50.11140 31993 ft 500 kts 209°
2026-04-25 01:44 9.88453 50.07359 31995 ft 500 kts 209°
2026-04-25 01:45 9.82314 50.03580 31996 ft 500 kts 209°
2026-04-25 01:45 9.76169 49.99797 31996 ft 500 kts 209°
2026-04-25 01:46 9.70042 49.96027 31996 ft 500 kts 209°
2026-04-25 01:46 9.63880 49.92238 31996 ft 500 kts 209°
2026-04-25 01:47 9.57715 49.88449 31996 ft 499 kts 209°
2026-04-25 01:47 9.51557 49.84665 31996 ft 500 kts 209°
2026-04-25 01:48 9.45410 49.80890 31995 ft 500 kts 209°
2026-04-25 01:48 9.39245 49.77105 31996 ft 500 kts 209°
2026-04-25 01:49 9.33111 49.73341 31995 ft 500 kts 209°
2026-04-25 01:49 9.26949 49.69561 31995 ft 500 kts 209°
2026-04-25 01:50 9.20789 49.65785 31995 ft 500 kts 209°
2026-04-25 01:50 9.14687 49.62047 31995 ft 500 kts 209°
2026-04-25 01:51 9.08523 49.58271 31995 ft 499 kts 209°
2026-04-25 01:51 9.02401 49.54523 31995 ft 498 kts 209°
2026-04-25 01:52 8.96271 49.50772 31994 ft 498 kts 208°
2026-04-25 01:52 8.90147 49.47027 31995 ft 498 kts 208°
2026-04-25 01:53 8.84008 49.43275 31998 ft 498 kts 208°
2026-04-25 01:53 8.77908 49.39547 31999 ft 498 kts 208°
2026-04-25 01:54 8.71773 49.35800 31998 ft 498 kts 208°
2026-04-25 01:54 8.65645 49.32058 31994 ft 498 kts 208°
2026-04-25 01:55 8.59532 49.28327 31994 ft 498 kts 208°
2026-04-25 01:55 8.53395 49.24585 31994 ft 498 kts 208°
2026-04-25 01:56 8.47286 49.20862 31994 ft 498 kts 208°
2026-04-25 01:56 8.41174 49.17141 31994 ft 495 kts 208°
2026-04-25 01:57 8.32063 49.11595 31994 ft 492 kts 209°
2026-04-25 01:58 8.25978 49.07892 31994 ft 490 kts 210°
2026-04-25 01:58 8.19965 49.04234 31994 ft 490 kts 210°
2026-04-25 01:59 8.13889 49.00538 31994 ft 491 kts 211°
2026-04-25 01:59 8.07825 48.96849 31994 ft 492 kts 211°
2026-04-25 02:00 8.01796 48.93182 31994 ft 493 kts 211°
2026-04-25 02:00 7.95709 48.89482 31993 ft 493 kts 211°
2026-04-25 02:01 7.89648 48.85801 31993 ft 493 kts 211°
2026-04-25 02:01 7.83589 48.82122 31995 ft 493 kts 211°
2026-04-25 02:02 7.77547 48.78455 31995 ft 493 kts 211°
2026-04-25 02:02 7.71450 48.74755 31995 ft 493 kts 211°
2026-04-25 02:03 7.65389 48.71079 31995 ft 493 kts 211°
2026-04-25 02:03 7.59312 48.67394 31995 ft 493 kts 211°
2026-04-25 02:04 7.53225 48.63704 31994 ft 493 kts 211°
2026-04-25 02:04 7.47180 48.60041 31994 ft 493 kts 211°
2026-04-25 02:05 7.41092 48.56353 31994 ft 493 kts 211°
2026-04-25 02:05 7.34992 48.52660 31994 ft 493 kts 211°
2026-04-25 02:06 7.28962 48.48945 32011 ft 492 kts 211°
2026-04-25 02:06 7.22896 48.45203 32020 ft 493 kts 211°
2026-04-25 02:07 7.16857 48.41478 32020 ft 493 kts 211°
2026-04-25 02:07 7.10855 48.37777 32020 ft 493 kts 211°
2026-04-25 02:08 7.04783 48.34035 32021 ft 493 kts 211°
2026-04-25 02:08 6.98778 48.30332 32021 ft 495 kts 211°
2026-04-25 02:09 6.92668 48.26569 32021 ft 498 kts 211°
2026-04-25 02:09 6.86547 48.22801 32023 ft 501 kts 211°
2026-04-25 02:10 6.80420 48.19029 32022 ft 500 kts 211°
2026-04-25 02:10 6.74328 48.15280 32022 ft 500 kts 211°
2026-04-25 02:11 6.68176 48.11495 32022 ft 500 kts 211°
2026-04-25 02:11 6.62026 48.07713 32022 ft 500 kts 211°
2026-04-25 02:12 6.55865 48.03924 32022 ft 500 kts 211°
2026-04-25 02:12 6.49763 48.00173 32022 ft 500 kts 211°
2026-04-25 02:13 6.43619 47.96397 32022 ft 500 kts 211°
2026-04-25 02:13 6.37463 47.92615 32022 ft 500 kts 211°
2026-04-25 02:14 6.31326 47.88847 32022 ft 500 kts 211°
2026-04-25 02:14 6.25177 47.85071 32022 ft 500 kts 211°
2026-04-25 02:15 6.19005 47.81282 32021 ft 500 kts 211°
2026-04-25 02:15 6.12891 47.77530 32022 ft 500 kts 211°
2026-04-25 02:16 6.06770 47.73774 32021 ft 500 kts 211°
2026-04-25 02:16 6.00556 47.69963 32021 ft 500 kts 211°
2026-04-25 02:17 5.94456 47.66224 32021 ft 500 kts 211°
2026-04-25 02:17 5.88285 47.62439 32022 ft 500 kts 211°
2026-04-25 02:18 5.82135 47.58672 32023 ft 500 kts 211°
2026-04-25 02:18 5.76045 47.54940 32023 ft 500 kts 211°
2026-04-25 02:19 5.69929 47.51194 32022 ft 500 kts 211°
2026-04-25 02:19 5.63736 47.47416 32022 ft 500 kts 211°
2026-04-25 02:20 5.57560 47.43686 32022 ft 500 kts 211°
2026-04-25 02:20 5.51435 47.39987 32022 ft 500 kts 211°
2026-04-25 02:21 5.45262 47.36260 32022 ft 500 kts 211°
2026-04-25 02:21 5.39103 47.32542 32022 ft 500 kts 210°
2026-04-25 02:22 5.32928 47.28816 32022 ft 500 kts 210°
2026-04-25 02:22 5.26795 47.25116 32022 ft 500 kts 210°
2026-04-25 02:23 5.20602 47.21380 32021 ft 500 kts 210°
2026-04-25 02:23 5.14422 47.17653 32021 ft 500 kts 210°
2026-04-25 02:24 5.08278 47.13950 32021 ft 500 kts 211°
2026-04-25 02:24 5.02123 47.10241 32021 ft 498 kts 211°
2026-04-25 02:25 4.95971 47.06533 32021 ft 498 kts 211°
2026-04-25 02:25 4.89843 47.02839 32021 ft 498 kts 211°
2026-04-25 02:26 4.83744 46.99165 32022 ft 496 kts 211°
2026-04-25 02:26 4.77668 46.95506 32022 ft 495 kts 211°
2026-04-25 02:27 4.71570 46.91834 32022 ft 493 kts 211°
2026-04-25 02:27 4.65484 46.88170 32022 ft 491 kts 211°
2026-04-25 02:28 4.59451 46.84539 32022 ft 490 kts 211°
2026-04-25 02:28 4.53385 46.80889 32022 ft 489 kts 211°
2026-04-25 02:29 4.47366 46.77267 32021 ft 488 kts 211°
2026-04-25 02:29 4.41377 46.73664 32021 ft 488 kts 211°
2026-04-25 02:30 4.35357 46.70043 32020 ft 488 kts 211°
2026-04-25 02:30 4.29323 46.66415 32020 ft 488 kts 211°
2026-04-25 02:31 4.23314 46.62801 32020 ft 488 kts 211°
2026-04-25 02:31 4.17274 46.59172 32020 ft 488 kts 211°
2026-04-25 02:32 4.11254 46.55554 32019 ft 488 kts 211°
2026-04-25 02:32 4.05213 46.51924 32019 ft 488 kts 211°
2026-04-25 02:33 3.99199 46.48311 32019 ft 488 kts 211°
2026-04-25 02:33 3.93176 46.44693 32018 ft 488 kts 211°
2026-04-25 02:34 3.87164 46.41083 32022 ft 488 kts 211°
2026-04-25 02:34 3.81164 46.37480 32027 ft 488 kts 211°
2026-04-25 02:35 3.75164 46.33878 32069 ft 487 kts 211°
2026-04-25 02:35 3.69162 46.30275 32119 ft 486 kts 211°
2026-04-25 02:36 3.63168 46.26677 32138 ft 485 kts 211°
2026-04-25 02:36 3.57177 46.23082 32138 ft 485 kts 211°
2026-04-25 02:37 3.51203 46.19498 32137 ft 485 kts 211°
2026-04-25 02:37 3.45197 46.15895 32137 ft 485 kts 211°
2026-04-25 02:38 3.39263 46.12335 32137 ft 485 kts 211°
2026-04-25 02:38 3.33229 46.08717 32137 ft 485 kts 211°
2026-04-25 02:39 3.27245 46.05130 32136 ft 485 kts 211°
2026-04-25 02:39 3.21257 46.01539 32136 ft 486 kts 211°
2026-04-25 02:40 3.15254 45.97940 32136 ft 485 kts 211°
2026-04-25 02:40 3.09245 45.94339 32042 ft 487 kts 211°
2026-04-25 02:41 3.03228 45.90733 32047 ft 487 kts 211°
2026-04-25 02:41 2.97232 45.87146 32047 ft 484 kts 212°
2026-04-25 02:42 2.91263 45.83572 32046 ft 482 kts 213°
2026-04-25 02:42 2.85347 45.80028 32048 ft 482 kts 213°
2026-04-25 02:43 2.79417 45.76469 32048 ft 483 kts 213°
2026-04-25 02:43 2.73450 45.72894 32047 ft 483 kts 213°
2026-04-25 02:44 2.67513 45.69339 32047 ft 483 kts 213°
2026-04-25 02:44 2.61551 45.65768 32047 ft 483 kts 213°
2026-04-25 02:45 2.55619 45.62217 32046 ft 483 kts 213°
2026-04-25 02:45 2.49667 45.58653 32046 ft 483 kts 213°
2026-04-25 02:46 2.43705 45.55085 32045 ft 483 kts 213°
2026-04-25 02:46 2.37770 45.51532 32045 ft 483 kts 213°
2026-04-25 02:47 2.31808 45.47965 32045 ft 483 kts 213°
2026-04-25 02:47 2.25818 45.44380 32044 ft 482 kts 213°
2026-04-25 02:48 2.19855 45.40812 32044 ft 483 kts 213°
2026-04-25 02:48 2.13905 45.37251 32044 ft 483 kts 213°
2026-04-25 02:49 2.07971 45.33703 32051 ft 482 kts 213°
2026-04-25 02:49 2.02022 45.30144 32050 ft 483 kts 213°
2026-04-25 02:50 1.96259 45.26355 32051 ft 481 kts 216°
2026-04-25 02:50 1.90503 45.22478 32050 ft 481 kts 216°
2026-04-25 02:51 1.84783 45.18620 32051 ft 481 kts 216°
2026-04-25 02:51 1.79021 45.14734 32051 ft 481 kts 216°
2026-04-25 02:52 1.73299 45.10876 32050 ft 481 kts 216°
2026-04-25 02:52 1.67591 45.07029 32050 ft 481 kts 216°
2026-04-25 02:53 1.61848 45.03157 32050 ft 479 kts 216°
2026-04-25 02:53 1.56110 44.99289 32049 ft 478 kts 217°
2026-04-25 02:54 1.50406 44.95444 32049 ft 478 kts 217°
2026-04-25 02:54 1.44708 44.91603 32048 ft 477 kts 217°
2026-04-25 02:55 1.39017 44.87767 32048 ft 476 kts 217°
2026-04-25 02:55 1.33367 44.83958 32047 ft 476 kts 217°
2026-04-25 02:56 1.27678 44.80123 32047 ft 476 kts 217°
2026-04-25 02:56 1.22001 44.76297 32046 ft 476 kts 217°
2026-04-25 02:57 1.16325 44.72471 32046 ft 476 kts 217°
2026-04-25 02:57 1.10649 44.68647 32045 ft 477 kts 217°
2026-04-25 02:58 1.04951 44.64805 32045 ft 480 kts 217°
2026-04-25 02:58 0.99216 44.60940 32045 ft 483 kts 217°
2026-04-25 02:59 0.93444 44.57051 32045 ft 484 kts 216°
2026-04-25 02:59 0.87650 44.53150 32046 ft 484 kts 216°
2026-04-25 03:00 0.81893 44.49273 32045 ft 484 kts 216°
2026-04-25 03:00 0.76125 44.45387 32045 ft 484 kts 216°
2026-04-25 03:01 0.70324 44.41478 32045 ft 484 kts 216°
2026-04-25 03:01 0.64572 44.37604 32044 ft 484 kts 216°
2026-04-25 03:02 0.58791 44.33710 32051 ft 484 kts 216°
2026-04-25 03:02 0.53049 44.29841 32051 ft 484 kts 216°
2026-04-25 03:03 0.47282 44.25957 32051 ft 484 kts 216°
2026-04-25 03:03 0.41496 44.22060 32051 ft 484 kts 216°
2026-04-25 03:04 0.35694 44.18151 32050 ft 484 kts 216°
2026-04-25 03:04 0.29930 44.14261 32050 ft 484 kts 217°
2026-04-25 03:05 0.21274 44.08403 32049 ft 484 kts 216°
2026-04-25 03:05 0.15510 44.04503 32049 ft 484 kts 216°
2026-04-25 03:06 0.09737 44.00597 32049 ft 484 kts 216°
2026-04-25 03:06 0.03949 43.96681 32048 ft 484 kts 216°
2026-04-25 03:07 -0.01815 43.92780 32048 ft 484 kts 216°
2026-04-25 03:07 -0.07576 43.88882 32048 ft 484 kts 216°
2026-04-25 03:08 -0.13334 43.84985 32048 ft 484 kts 216°
2026-04-25 03:08 -0.19087 43.81093 32048 ft 484 kts 216°
2026-04-25 03:09 -0.24868 43.77181 32048 ft 484 kts 216°
2026-04-25 03:09 -0.30627 43.73283 32047 ft 484 kts 216°
2026-04-25 03:10 -0.36416 43.69366 32047 ft 484 kts 216°
2026-04-25 03:10 -0.42173 43.65470 32046 ft 484 kts 216°
2026-04-25 03:11 -0.47931 43.61574 32046 ft 484 kts 217°
2026-04-25 03:11 -0.53684 43.57681 32046 ft 484 kts 216°
2026-04-25 03:12 -0.59479 43.53758 32045 ft 484 kts 216°
2026-04-25 03:12 -0.65257 43.49849 32045 ft 484 kts 216°
2026-04-25 03:13 -0.71005 43.45958 32045 ft 484 kts 216°
2026-04-25 03:13 -0.76775 43.42052 32044 ft 484 kts 216°
2026-04-25 03:14 -0.82566 43.38133 32044 ft 484 kts 216°
2026-04-25 03:14 -0.88322 43.34237 32048 ft 484 kts 216°
2026-04-25 03:15 -0.94070 43.30347 32051 ft 484 kts 216°
2026-04-25 03:15 -0.99824 43.26452 32050 ft 484 kts 216°
2026-04-25 03:16 -1.05631 43.22520 32050 ft 485 kts 216°
2026-04-25 03:16 -1.11394 43.18618 32050 ft 486 kts 216°
2026-04-25 03:17 -1.17186 43.14698 32050 ft 486 kts 216°
2026-04-25 03:17 -1.22983 43.10774 32050 ft 486 kts 216°
2026-04-25 03:18 -1.28784 43.06846 32050 ft 486 kts 216°
2026-04-25 03:18 -1.34604 43.02905 32049 ft 486 kts 216°
2026-04-25 03:19 -1.40352 42.99013 32049 ft 486 kts 216°
2026-04-25 03:19 -1.46184 42.95064 32049 ft 486 kts 216°
2026-04-25 03:20 -1.51944 42.91163 32048 ft 486 kts 216°
2026-04-25 03:20 -1.57736 42.87239 32048 ft 487 kts 216°
2026-04-25 03:21 -1.63527 42.83318 32048 ft 486 kts 216°
2026-04-25 03:21 -1.69344 42.79378 32047 ft 486 kts 216°
2026-04-25 03:22 -1.75147 42.75446 32047 ft 486 kts 216°
2026-04-25 03:22 -1.80906 42.71545 32047 ft 486 kts 216°
2026-04-25 03:23 -1.86696 42.67622 32046 ft 486 kts 216°
2026-04-25 03:23 -1.92487 42.63698 32046 ft 486 kts 216°
2026-04-25 03:24 -1.98308 42.59753 32046 ft 486 kts 216°
2026-04-25 03:24 -2.04044 42.55804 32046 ft 486 kts 217°
2026-04-25 03:25 -2.09793 42.51821 32045 ft 486 kts 217°
2026-04-25 03:25 -2.15531 42.47843 32046 ft 486 kts 217°
2026-04-25 03:26 -2.21290 42.43848 32046 ft 486 kts 217°
2026-04-25 03:26 -2.26913 42.39725 32046 ft 486 kts 218°
2026-04-25 03:27 -2.32546 42.35574 32045 ft 486 kts 218°
2026-04-25 03:27 -2.38165 42.31430 32051 ft 486 kts 218°
2026-04-25 03:28 -2.43809 42.27269 32051 ft 486 kts 218°
2026-04-25 03:28 -2.49394 42.23149 32050 ft 486 kts 218°
2026-04-25 03:29 -2.55025 42.18995 32050 ft 485 kts 218°
2026-04-25 03:29 -2.60658 42.14840 32050 ft 485 kts 218°
2026-04-25 03:30 -2.66285 42.10688 32049 ft 486 kts 218°
2026-04-25 03:30 -2.71934 42.06519 32049 ft 485 kts 218°
2026-04-25 03:31 -2.77555 42.02372 32049 ft 486 kts 218°
2026-04-25 03:31 -2.83191 41.98212 32049 ft 486 kts 218°
2026-04-25 03:32 -2.88802 41.94070 32048 ft 486 kts 218°
2026-04-25 03:32 -2.94441 41.89909 32048 ft 486 kts 218°
2026-04-25 03:33 -3.00060 41.85761 32048 ft 485 kts 219°
2026-04-25 03:33 -3.05709 41.81588 32048 ft 486 kts 219°
2026-04-25 03:34 -3.11323 41.77441 32046 ft 486 kts 219°
2026-04-25 03:34 -3.16939 41.73293 32047 ft 486 kts 219°
2026-04-25 03:35 -3.22556 41.69143 32047 ft 486 kts 219°
2026-04-25 03:35 -3.28186 41.64983 32045 ft 486 kts 219°
2026-04-25 03:36 -3.33846 41.60801 32046 ft 486 kts 219°
2026-04-25 03:36 -3.39445 41.56662 32047 ft 486 kts 219°
2026-04-25 03:37 -3.45065 41.52508 32044 ft 486 kts 219°
2026-04-25 03:37 -3.50684 41.48356 32044 ft 485 kts 219°
2026-04-25 03:38 -3.56325 41.44184 32045 ft 486 kts 219°
2026-04-25 03:38 -3.61938 41.40034 32045 ft 486 kts 219°
2026-04-25 03:39 -3.67599 41.35846 32048 ft 485 kts 219°
2026-04-25 03:39 -3.73225 41.31685 32050 ft 486 kts 219°
2026-04-25 03:40 -3.78818 41.27547 32051 ft 485 kts 219°
2026-04-25 03:40 -3.84457 41.23373 32051 ft 485 kts 219°
2026-04-25 03:41 -3.90068 41.19221 32049 ft 486 kts 219°
2026-04-25 03:41 -3.95691 41.15058 32033 ft 487 kts 219°
2026-04-25 03:42 -4.01481 41.11078 32022 ft 488 kts 213°
2026-04-25 03:42 -4.07487 41.07400 32023 ft 488 kts 214°
2026-04-25 03:43 -4.13442 41.03767 32022 ft 488 kts 214°
2026-04-25 03:43 -4.19435 41.00113 32022 ft 488 kts 214°
2026-04-25 03:44 -4.25432 40.96456 32025 ft 488 kts 214°
2026-04-25 03:44 -4.31421 40.92805 32031 ft 488 kts 214°
2026-04-25 03:45 -4.37457 40.89122 32040 ft 488 kts 214°
2026-04-25 03:45 -4.43459 40.85461 32045 ft 489 kts 214°
2026-04-25 03:46 -4.49448 40.81808 32047 ft 489 kts 214°
2026-04-25 03:46 -4.55472 40.78131 32047 ft 489 kts 214°
2026-04-25 03:47 -4.61438 40.74489 32047 ft 489 kts 214°
2026-04-25 03:47 -4.67443 40.70823 32047 ft 489 kts 214°
2026-04-25 03:48 -4.73476 40.67139 32046 ft 489 kts 214°
2026-04-25 03:48 -4.79449 40.63490 32046 ft 489 kts 214°
2026-04-25 03:49 -4.85175 40.59406 32050 ft 486 kts 221°
2026-04-25 03:49 -4.90710 40.55086 32046 ft 486 kts 220°
2026-04-25 03:50 -4.96214 40.50764 32045 ft 486 kts 221°
2026-04-25 03:50 -5.01706 40.46443 32045 ft 485 kts 220°
2026-04-25 03:51 -5.07158 40.42153 32044 ft 483 kts 220°
2026-04-25 03:51 -5.12632 40.37893 32044 ft 483 kts 217°
2026-04-25 03:52 -5.18443 40.34049 32050 ft 484 kts 216°
2026-04-25 03:52 -5.24237 40.30186 32051 ft 484 kts 216°
2026-04-25 03:53 -5.30018 40.26326 32051 ft 484 kts 216°
2026-04-25 03:53 -5.35802 40.22462 32051 ft 484 kts 216°
2026-04-25 03:54 -5.41592 40.18592 32050 ft 483 kts 216°
2026-04-25 03:54 -5.47385 40.14720 32050 ft 484 kts 216°
2026-04-25 03:55 -5.53149 40.10867 32050 ft 483 kts 216°
2026-04-25 03:55 -5.58955 40.06984 32050 ft 484 kts 216°
2026-04-25 03:56 -5.64700 40.03141 32049 ft 483 kts 216°
2026-04-25 03:56 -5.70496 39.99263 32049 ft 484 kts 216°
2026-04-25 03:57 -5.76286 39.95388 32049 ft 484 kts 216°
2026-04-25 03:57 -5.82092 39.91502 32048 ft 483 kts 216°
2026-04-25 03:58 -5.87887 39.87622 32048 ft 484 kts 216°
2026-04-25 03:58 -5.93665 39.83752 32047 ft 484 kts 216°
2026-04-25 03:59 -5.99445 39.79880 32047 ft 484 kts 216°
2026-04-25 03:59 -6.05237 39.75999 32046 ft 484 kts 216°
2026-04-25 04:00 -6.11021 39.72121 32047 ft 484 kts 216°
2026-04-25 04:00 -6.16759 39.68276 32047 ft 484 kts 216°
2026-04-25 04:01 -6.22530 39.64406 32047 ft 484 kts 216°
2026-04-25 04:01 -6.28292 39.60515 32046 ft 484 kts 216°
2026-04-25 04:02 -6.34068 39.56584 32046 ft 483 kts 216°
2026-04-25 04:02 -6.39791 39.52687 32046 ft 483 kts 216°
2026-04-25 04:03 -6.45542 39.48770 32045 ft 484 kts 216°
2026-04-25 04:03 -6.51318 39.44835 32045 ft 484 kts 216°
2026-04-25 04:04 -6.57065 39.40919 32045 ft 484 kts 216°
2026-04-25 04:04 -6.62813 39.37000 32044 ft 483 kts 216°
2026-04-25 04:05 -6.68537 39.33098 32052 ft 484 kts 216°
2026-04-25 04:05 -6.74305 39.29163 32051 ft 484 kts 216°
2026-04-25 04:06 -6.79998 39.25280 32050 ft 483 kts 216°
2026-04-25 04:06 -6.85722 39.21373 32050 ft 483 kts 216°
2026-04-25 04:07 -6.91371 39.17332 32050 ft 481 kts 219°
2026-04-25 04:07 -6.96889 39.13139 32049 ft 478 kts 219°
2026-04-25 04:08 -7.02361 39.08987 32048 ft 475 kts 218°
2026-04-25 04:08 -7.07793 39.04869 32047 ft 474 kts 218°
2026-04-25 04:09 -7.13239 39.00738 32051 ft 474 kts 218°
2026-04-25 04:09 -7.18663 38.96621 32050 ft 473 kts 218°
2026-04-25 04:10 -7.24095 38.92497 32050 ft 473 kts 218°
2026-04-25 04:10 -7.29511 38.88384 32049 ft 472 kts 218°
2026-04-25 04:11 -7.37638 38.82211 32048 ft 472 kts 218°
2026-04-25 04:12 -7.43035 38.78110 32048 ft 472 kts 218°
2026-04-25 04:12 -7.48440 38.74002 32137 ft 470 kts 218°
2026-04-25 04:13 -7.53854 38.69883 32135 ft 470 kts 218°
2026-04-25 04:13 -7.59265 38.65767 32134 ft 470 kts 218°
2026-04-25 04:14 -7.64642 38.61675 32133 ft 470 kts 218°
2026-04-25 04:14 -7.70053 38.57556 32133 ft 470 kts 218°
2026-04-25 04:15 -7.75443 38.53451 32132 ft 470 kts 218°
2026-04-25 04:15 -7.80817 38.49358 32132 ft 470 kts 218°
2026-04-25 04:16 -7.86234 38.45230 32131 ft 470 kts 218°
2026-04-25 04:16 -7.91593 38.41145 32131 ft 470 kts 218°
2026-04-25 04:17 -7.96996 38.37026 32130 ft 470 kts 218°
2026-04-25 04:17 -8.02390 38.32910 32137 ft 470 kts 218°
2026-04-25 04:18 -8.07781 38.28798 32136 ft 470 kts 218°
2026-04-25 04:18 -8.13200 38.24662 32141 ft 470 kts 218°
2026-04-25 04:19 -8.18581 38.20553 32140 ft 470 kts 218°
2026-04-25 04:19 -8.23941 38.16458 32139 ft 470 kts 218°
2026-04-25 04:20 -8.29348 38.12324 32139 ft 470 kts 218°
2026-04-25 04:20 -8.34735 38.08204 32138 ft 470 kts 218°
2026-04-25 04:21 -8.40109 38.04093 32138 ft 470 kts 218°
2026-04-25 04:21 -8.45506 37.99961 32137 ft 470 kts 218°
2026-04-25 04:22 -8.50887 37.95842 32137 ft 470 kts 218°
2026-04-25 04:22 -8.56279 37.91712 32136 ft 470 kts 218°
2026-04-25 04:23 -8.61663 37.87587 32135 ft 470 kts 218°
2026-04-25 04:23 -8.67079 37.83435 32135 ft 470 kts 218°
2026-04-25 04:24 -8.72463 37.79307 32134 ft 470 kts 218°
2026-04-25 04:24 -8.77847 37.75177 32134 ft 470 kts 218°
2026-04-25 04:25 -8.83224 37.71051 32133 ft 470 kts 218°
2026-04-25 04:25 -8.88582 37.66938 32134 ft 470 kts 218°
2026-04-25 04:26 -8.93996 37.62781 32172 ft 470 kts 218°
2026-04-25 04:26 -8.99370 37.58651 32231 ft 473 kts 218°
2026-04-25 04:27 -9.04812 37.54467 32306 ft 477 kts 218°
2026-04-25 04:27 -9.10304 37.50245 32354 ft 481 kts 218°
2026-04-25 04:28 -9.15817 37.46007 32372 ft 482 kts 218°
2026-04-25 04:28 -9.21330 37.41767 32372 ft 482 kts 218°
2026-04-25 04:29 -9.26814 37.37545 32371 ft 482 kts 218°
2026-04-25 04:29 -9.32338 37.33292 32376 ft 482 kts 218°
2026-04-25 04:30 -9.37800 37.29084 32375 ft 482 kts 218°
2026-04-25 04:30 -9.43291 37.24852 32375 ft 482 kts 218°
2026-04-25 04:31 -9.48800 37.20605 32374 ft 482 kts 218°
2026-04-25 04:31 -9.54325 37.16343 32374 ft 482 kts 218°
2026-04-25 04:32 -9.59835 37.12090 32373 ft 482 kts 218°
2026-04-25 04:32 -9.65339 37.07842 32373 ft 482 kts 218°
2026-04-25 04:33 -9.70853 37.03583 32373 ft 482 kts 218°
2026-04-25 04:33 -9.76364 36.99326 32372 ft 482 kts 217°
2026-04-25 04:34 -9.81877 36.95065 32372 ft 482 kts 217°
2026-04-25 04:34 -9.87400 36.90795 32371 ft 482 kts 217°
2026-04-25 04:35 -9.92917 36.86527 32371 ft 482 kts 217°
2026-04-25 04:35 -9.98397 36.82285 32371 ft 482 kts 217°
2026-04-25 04:36 -10.03907 36.78020 32370 ft 482 kts 217°
2026-04-25 04:36 -10.09442 36.73732 32370 ft 482 kts 217°
2026-04-25 04:37 -10.14933 36.69477 32373 ft 482 kts 217°
2026-04-25 04:37 -10.20438 36.65209 32373 ft 482 kts 217°
2026-04-25 04:38 -10.25930 36.60949 32373 ft 482 kts 217°
2026-04-25 04:38 -10.31462 36.56657 32372 ft 482 kts 217°
2026-04-25 04:39 -10.36971 36.52379 32372 ft 482 kts 217°
2026-04-25 04:39 -10.42464 36.48114 32372 ft 482 kts 217°
2026-04-25 04:40 -10.47968 36.43837 32371 ft 482 kts 217°
2026-04-25 04:40 -10.53436 36.39585 32371 ft 482 kts 217°
2026-04-25 04:41 -10.58942 36.35303 32370 ft 482 kts 217°
2026-04-25 04:41 -10.64448 36.31018 32374 ft 482 kts 218°
2026-04-25 04:42 -10.69905 36.26770 32373 ft 482 kts 218°
2026-04-25 04:42 -10.75402 36.22489 32373 ft 482 kts 218°
2026-04-25 04:43 -10.80861 36.18235 32371 ft 482 kts 218°
2026-04-25 04:43 -10.86399 36.13918 32293 ft 482 kts 218°
2026-04-25 04:44 -10.91886 36.09637 32291 ft 482 kts 217°
2026-04-25 04:44 -10.97361 36.05364 32290 ft 481 kts 217°
2026-04-25 04:45 -11.02873 36.01061 32290 ft 481 kts 217°
2026-04-25 04:45 -11.08356 35.96779 32289 ft 481 kts 217°
2026-04-25 04:46 -11.13816 35.92513 32294 ft 481 kts 217°
2026-04-25 04:46 -11.19302 35.88224 32293 ft 481 kts 217°
2026-04-25 04:47 -11.24760 35.83955 32293 ft 481 kts 217°
2026-04-25 04:47 -11.30254 35.79655 32293 ft 481 kts 217°
2026-04-25 04:48 -11.35702 35.75389 32292 ft 481 kts 217°
2026-04-25 04:48 -11.41228 35.71060 32292 ft 481 kts 217°
2026-04-25 04:49 -11.46690 35.66779 32291 ft 481 kts 217°
2026-04-25 04:49 -11.52187 35.62469 32291 ft 481 kts 217°
2026-04-25 04:50 -11.57653 35.58180 32291 ft 481 kts 217°
2026-04-25 04:50 -11.63119 35.53854 32290 ft 481 kts 218°
2026-04-25 04:51 -11.68562 35.49506 32290 ft 481 kts 218°
2026-04-25 04:51 -11.74022 35.45142 32289 ft 481 kts 218°
2026-04-25 04:52 -11.79448 35.40803 32289 ft 481 kts 218°
2026-04-25 04:52 -11.84880 35.36456 32289 ft 481 kts 218°
2026-04-25 04:53 -11.90321 35.32100 32316 ft 481 kts 218°
2026-04-25 04:53 -11.95737 35.27763 32343 ft 481 kts 218°
2026-04-25 04:54 -12.01156 35.23420 32369 ft 481 kts 218°
2026-04-25 04:54 -12.06596 35.19058 32371 ft 481 kts 218°
2026-04-25 04:55 -12.12019 35.14707 32376 ft 481 kts 218°
2026-04-25 04:55 -12.17421 35.10371 32375 ft 481 kts 218°
2026-04-25 04:56 -12.22826 35.06030 32375 ft 481 kts 218°
2026-04-25 04:56 -12.28280 35.01647 32374 ft 482 kts 218°
2026-04-25 04:57 -12.33740 34.97258 32374 ft 483 kts 218°
2026-04-25 04:57 -12.39144 34.92910 32374 ft 485 kts 218°
2026-04-25 04:58 -12.44653 34.88477 32373 ft 487 kts 218°
2026-04-25 04:58 -12.50181 34.84025 32373 ft 488 kts 218°
2026-04-25 04:59 -12.55663 34.79608 32373 ft 490 kts 218°
2026-04-25 04:59 -12.61206 34.75174 32372 ft 490 kts 217°
2026-04-25 05:00 -12.66808 34.70862 32372 ft 490 kts 217°
2026-04-25 05:00 -12.72437 34.66521 32372 ft 490 kts 217°
2026-04-25 05:01 -12.78061 34.62181 32372 ft 490 kts 217°
2026-04-25 05:01 -12.83651 34.57864 32371 ft 490 kts 217°
2026-04-25 05:02 -12.89259 34.53531 32371 ft 490 kts 217°
2026-04-25 05:02 -12.94871 34.49193 32366 ft 490 kts 217°
2026-04-25 05:03 -13.00462 34.44867 32359 ft 487 kts 217°
2026-04-25 05:03 -13.06048 34.40542 32353 ft 482 kts 216°
2026-04-25 05:04 -13.11539 34.36288 32352 ft 478 kts 216°
2026-04-25 05:04 -13.16962 34.32053 32351 ft 478 kts 217°
2026-04-25 05:05 -13.22382 34.27734 32349 ft 478 kts 217°
2026-04-25 05:05 -13.27793 34.23420 32348 ft 478 kts 217°
2026-04-25 05:06 -13.33225 34.19088 32348 ft 478 kts 217°
2026-04-25 05:06 -13.38631 34.14772 32347 ft 478 kts 217°
2026-04-25 05:07 -13.44057 34.10439 32347 ft 478 kts 217°
2026-04-25 05:07 -13.49473 34.06112 32346 ft 478 kts 217°
2026-04-25 05:08 -13.54906 34.01767 32346 ft 478 kts 217°
2026-04-25 05:08 -13.60307 33.97446 32346 ft 478 kts 217°
2026-04-25 05:09 -13.65724 33.93109 32345 ft 478 kts 217°
2026-04-25 05:09 -13.71135 33.88776 32345 ft 478 kts 217°
2026-04-25 05:10 -13.76557 33.84430 32344 ft 478 kts 217°
2026-04-25 05:10 -13.82168 33.80394 32343 ft 477 kts 207°
2026-04-25 05:11 -13.88396 33.77494 32343 ft 478 kts 204°
2026-04-25 05:11 -13.94697 33.74617 32343 ft 477 kts 204°
2026-04-25 05:12 -14.04085 33.70348 32342 ft 477 kts 204°
2026-04-25 05:12 -14.10363 33.67493 32342 ft 477 kts 204°
2026-04-25 05:13 -14.16600 33.64657 32347 ft 477 kts 204°
2026-04-25 05:13 -14.22876 33.61800 32347 ft 477 kts 204°
2026-04-25 05:14 -14.29150 33.58942 32346 ft 477 kts 204°
2026-04-25 05:15 -14.38511 33.54676 32346 ft 478 kts 204°
2026-04-25 05:15 -14.44772 33.51820 32345 ft 478 kts 204°
2026-04-25 05:16 -14.51044 33.48957 32345 ft 478 kts 204°
2026-04-25 05:16 -14.57304 33.46099 32344 ft 478 kts 204°
2026-04-25 05:17 -14.63570 33.43253 32344 ft 478 kts 204°
2026-04-25 05:17 -14.69854 33.40396 32343 ft 478 kts 204°
2026-04-25 05:18 -14.76145 33.37534 32343 ft 478 kts 204°
2026-04-25 05:18 -14.82391 33.34691 32343 ft 478 kts 204°
2026-04-25 05:19 -14.88671 33.31831 32345 ft 478 kts 204°
2026-04-25 05:19 -14.94859 33.29015 32318 ft 475 kts 204°
2026-04-25 05:20 -15.01116 33.26143 32286 ft 472 kts 205°
2026-04-25 05:20 -15.07264 33.23204 32262 ft 472 kts 206°
2026-04-25 05:21 -15.13396 33.20271 32269 ft 472 kts 206°
2026-04-25 05:21 -15.19573 33.17317 32268 ft 472 kts 206°
2026-04-25 05:22 -15.25687 33.14394 32268 ft 472 kts 206°
2026-04-25 05:22 -15.31838 33.11449 32267 ft 472 kts 206°
2026-04-25 05:23 -15.38016 33.08491 32266 ft 473 kts 206°
2026-04-25 05:23 -15.44186 33.05534 32266 ft 473 kts 206°
2026-04-25 05:24 -15.50358 33.02575 32265 ft 474 kts 206°
2026-04-25 05:24 -15.56553 32.99602 32265 ft 474 kts 206°
2026-04-25 05:25 -15.62682 32.96614 32264 ft 475 kts 206°
2026-04-25 05:25 -15.68867 32.93581 32264 ft 475 kts 206°
2026-04-25 05:26 -15.75020 32.90561 32263 ft 476 kts 206°
2026-04-25 05:26 -15.80234 32.88012 32260 ft 486 kts 207°
2026-04-25 05:27 -15.87516 32.84423 32262 ft 484 kts 208°
2026-04-25 05:27 -15.93823 32.81317 32263 ft 484 kts 208°
2026-04-25 05:28 -16.00105 32.78223 32263 ft 484 kts 207°
2026-04-25 05:28 -16.06389 32.75127 32262 ft 484 kts 207°
2026-04-25 05:29 -16.12675 32.72028 32264 ft 484 kts 207°
2026-04-25 05:29 -16.18953 32.68931 32264 ft 484 kts 207°
2026-04-25 05:30 -16.25212 32.65841 32263 ft 484 kts 208°
2026-04-25 05:30 -16.31485 32.62742 32263 ft 485 kts 208°
2026-04-25 05:31 -16.37799 32.59620 32263 ft 485 kts 208°
2026-04-25 05:31 -16.44067 32.56519 32262 ft 485 kts 208°
2026-04-25 05:32 -16.50351 32.53410 32262 ft 485 kts 207°
2026-04-25 05:32 -16.56715 32.50397 32262 ft 485 kts 207°
2026-04-25 05:33 -16.63036 32.47408 32261 ft 485 kts 207°
2026-04-25 05:33 -16.69403 32.44395 32261 ft 485 kts 207°
2026-04-25 05:34 -16.75721 32.41403 32261 ft 485 kts 207°
2026-04-25 05:34 -16.82074 32.38392 32260 ft 485 kts 207°
2026-04-25 05:35 -16.88408 32.35388 32260 ft 485 kts 207°
2026-04-25 05:35 -16.94772 32.32368 32266 ft 485 kts 207°
2026-04-25 05:36 -17.01007 32.29390 32255 ft 474 kts 206°
2026-04-25 05:36 -17.07208 32.26458 32265 ft 475 kts 206°
2026-04-25 05:37 -17.13424 32.23520 32269 ft 474 kts 206°
2026-04-25 05:37 -17.19603 32.20615 32268 ft 474 kts 206°
2026-04-25 05:38 -17.25795 32.17704 32268 ft 474 kts 206°
2026-04-25 05:38 -17.31997 32.14785 32267 ft 474 kts 206°
2026-04-25 05:39 -17.38251 32.11839 32267 ft 474 kts 206°
2026-04-25 05:39 -17.44424 32.08930 32266 ft 474 kts 206°
2026-04-25 05:40 -17.50658 32.05990 32225 ft 474 kts 206°
2026-04-25 05:40 -17.56842 32.03071 32176 ft 473 kts 206°
2026-04-25 05:41 -17.63049 32.00139 32136 ft 473 kts 206°
2026-04-25 05:41 -17.69238 31.97214 32136 ft 473 kts 206°
2026-04-25 05:42 -17.75415 31.94292 32135 ft 473 kts 206°
2026-04-25 05:42 -17.81603 31.91362 32135 ft 473 kts 206°
2026-04-25 05:43 -17.87840 31.88407 32134 ft 473 kts 206°
2026-04-25 05:43 -17.94029 31.85472 32134 ft 473 kts 206°
2026-04-25 05:44 -18.00199 31.82544 32133 ft 473 kts 206°
2026-04-25 05:44 -18.06386 31.79606 32133 ft 473 kts 206°
2026-04-25 05:45 -18.12595 31.76655 32138 ft 473 kts 206°
2026-04-25 05:45 -18.18744 31.73731 32137 ft 473 kts 206°
2026-04-25 05:46 -18.24971 31.70790 32137 ft 473 kts 205°
2026-04-25 05:46 -18.31182 31.67867 32136 ft 473 kts 205°
2026-04-25 05:47 -18.37390 31.64944 32135 ft 473 kts 205°
2026-04-25 05:47 -18.43568 31.62033 32135 ft 473 kts 205°
2026-04-25 05:48 -18.49777 31.59105 32134 ft 473 kts 205°
2026-04-25 05:48 -18.55976 31.56180 32134 ft 473 kts 205°
2026-04-25 05:49 -18.62207 31.53237 32133 ft 473 kts 205°
2026-04-25 05:49 -18.68374 31.50322 32133 ft 473 kts 205°
2026-04-25 05:50 -18.74582 31.47385 32132 ft 473 kts 205°
2026-04-25 05:50 -18.80796 31.44443 32132 ft 473 kts 205°
2026-04-25 05:51 -18.86971 31.41517 32131 ft 473 kts 205°
2026-04-25 05:51 -18.93222 31.38555 32131 ft 475 kts 205°
2026-04-25 05:52 -18.99454 31.35599 32169 ft 477 kts 206°
2026-04-25 05:52 -19.02576 31.34118 32423 ft 481 kts 206°
2026-04-25 05:52 -19.05735 31.32615 32393 ft 481 kts 206°
2026-04-25 05:53 -19.12018 31.29642 32403 ft 480 kts 206°
2026-04-25 05:53 -19.18323 31.26678 32403 ft 480 kts 206°
2026-04-25 05:54 -19.24611 31.23720 32403 ft 480 kts 206°
2026-04-25 05:54 -19.34024 31.19287 32402 ft 480 kts 206°
2026-04-25 05:55 -19.40305 31.16327 32402 ft 479 kts 206°
2026-04-25 05:55 -19.46553 31.13379 32401 ft 479 kts 206°
2026-04-25 05:56 -19.52818 31.10421 32401 ft 478 kts 206°
2026-04-25 05:56 -19.59092 31.07456 32400 ft 477 kts 206°
2026-04-25 05:57 -19.65341 31.04501 32400 ft 476 kts 206°
2026-04-25 05:57 -19.71579 31.01548 32399 ft 476 kts 206°
2026-04-25 05:58 -19.77760 30.98619 32399 ft 475 kts 206°
2026-04-25 05:58 -19.83991 30.95665 32398 ft 474 kts 206°
2026-04-25 05:59 -19.90175 30.92730 32398 ft 474 kts 206°
2026-04-25 05:59 -19.96385 30.89780 32397 ft 474 kts 206°
2026-04-25 06:00 -20.02607 30.86822 32397 ft 474 kts 206°
2026-04-25 06:00 -20.08551 30.83445 32400 ft 472 kts 213°
2026-04-25 06:01 -20.14342 30.79712 32401 ft 472 kts 213°
2026-04-25 06:01 -20.20087 30.75977 32400 ft 472 kts 213°
2026-04-25 06:02 -20.25864 30.72212 32399 ft 472 kts 213°
2026-04-25 06:02 -20.31639 30.68443 32399 ft 472 kts 213°
2026-04-25 06:03 -20.37390 30.64686 32398 ft 472 kts 213°
2026-04-25 06:03 -20.43173 30.60905 32398 ft 472 kts 213°
2026-04-25 06:04 -20.48942 30.57130 32397 ft 472 kts 213°
2026-04-25 06:04 -20.54723 30.53343 32397 ft 472 kts 213°
2026-04-25 06:05 -20.60466 30.49578 32396 ft 472 kts 213°
2026-04-25 06:05 -20.66249 30.45783 32396 ft 472 kts 213°
2026-04-25 06:06 -20.72000 30.42006 32395 ft 472 kts 213°
2026-04-25 06:06 -20.77749 30.38227 32395 ft 472 kts 213°
2026-04-25 06:07 -20.83522 30.34428 32397 ft 472 kts 213°
2026-04-25 06:07 -20.89276 30.30639 32400 ft 472 kts 213°
2026-04-25 06:08 -20.95035 30.26843 32400 ft 472 kts 213°
2026-04-25 06:08 -20.99819 30.23689 32400 ft 472 kts 213°
2026-04-25 06:09 -21.03655 30.21158 32400 ft 472 kts 213°
2026-04-25 06:09 -21.09365 30.17386 32399 ft 473 kts 214°
2026-04-25 06:10 -21.16087 30.12939 32402 ft 474 kts 214°
2026-04-25 06:10 -21.20901 30.09751 32402 ft 474 kts 214°
2026-04-25 06:11 -21.27597 30.05314 32401 ft 474 kts 214°
2026-04-25 06:11 -21.35276 30.00220 32401 ft 474 kts 214°
2026-04-25 06:12 -21.41045 29.96389 32400 ft 473 kts 214°
2026-04-25 06:12 -21.46823 29.92549 32400 ft 473 kts 214°
2026-04-25 06:13 -21.52592 29.88710 32399 ft 473 kts 214°
2026-04-25 06:14 -21.61280 29.82923 32398 ft 473 kts 214°
2026-04-25 06:14 -21.67048 29.79077 32398 ft 473 kts 214°
2026-04-25 06:15 -21.72836 29.75213 32398 ft 473 kts 214°
2026-04-25 06:15 -21.78598 29.71363 32413 ft 473 kts 214°
2026-04-25 06:16 -21.84387 29.67491 32445 ft 473 kts 214°
2026-04-25 06:16 -21.90154 29.63630 32468 ft 473 kts 214°
2026-04-25 06:17 -21.95967 29.59735 32476 ft 473 kts 214°
2026-04-25 06:17 -22.01726 29.55872 32476 ft 473 kts 214°
2026-04-25 06:18 -22.07489 29.52002 32475 ft 473 kts 214°
2026-04-25 06:18 -22.13268 29.48119 32479 ft 473 kts 214°
2026-04-25 06:19 -22.19070 29.44363 32478 ft 474 kts 211°
2026-04-25 06:19 -22.25055 29.40869 32475 ft 476 kts 206°
2026-04-25 06:20 -22.31406 29.38089 32477 ft 477 kts 205°
2026-04-25 06:20 -22.37776 29.35320 32476 ft 477 kts 204°
2026-04-25 06:21 -22.44132 29.32561 32484 ft 477 kts 205°
2026-04-25 06:21 -22.50459 29.29815 32484 ft 477 kts 205°
2026-04-25 06:22 -22.56821 29.27051 32483 ft 477 kts 205°
2026-04-25 06:22 -22.63140 29.24302 32483 ft 477 kts 205°
2026-04-25 06:23 -22.69504 29.21532 32482 ft 477 kts 205°
2026-04-25 06:23 -22.75866 29.18760 32482 ft 477 kts 205°
2026-04-25 06:24 -22.82210 29.15992 32481 ft 477 kts 205°
2026-04-25 06:24 -22.88573 29.13214 32481 ft 477 kts 205°
2026-04-25 06:25 -22.94932 29.10436 32481 ft 477 kts 205°
2026-04-25 06:25 -23.01306 29.07647 32480 ft 478 kts 205°
2026-04-25 06:26 -23.07661 29.04864 32480 ft 479 kts 205°
2026-04-25 06:26 -23.14039 29.02068 32483 ft 480 kts 205°
2026-04-25 06:27 -23.20447 28.99262 32473 ft 495 kts 206°
2026-04-25 06:27 -23.27059 28.96352 32474 ft 495 kts 206°
2026-04-25 06:28 -23.33648 28.93451 32481 ft 496 kts 206°
2026-04-25 06:28 -23.40235 28.90551 32480 ft 496 kts 206°
2026-04-25 06:29 -23.46867 28.87628 32480 ft 497 kts 206°
2026-04-25 06:29 -23.53466 28.84716 32480 ft 498 kts 206°
2026-04-25 06:30 -23.60065 28.81801 32480 ft 498 kts 206°
2026-04-25 06:30 -23.66695 28.78869 32480 ft 499 kts 206°
2026-04-25 06:31 -23.73320 28.75936 32480 ft 499 kts 206°
2026-04-25 06:31 -23.79949 28.72998 32480 ft 499 kts 206°
2026-04-25 06:32 -23.86568 28.70062 32480 ft 499 kts 206°
2026-04-25 06:32 -23.93074 28.67172 32480 ft 499 kts 206°
2026-04-25 06:33 -23.99701 28.64225 32480 ft 499 kts 206°
2026-04-25 06:33 -24.06325 28.61276 32480 ft 499 kts 206°
2026-04-25 06:34 -24.12947 28.58325 32476 ft 498 kts 206°
2026-04-25 06:34 -24.19528 28.55295 32477 ft 497 kts 208°
2026-04-25 06:35 -24.26091 28.52140 32477 ft 497 kts 207°
2026-04-25 06:35 -24.32618 28.49000 32476 ft 497 kts 207°
2026-04-25 06:36 -24.39144 28.45857 32469 ft 497 kts 207°
2026-04-25 06:36 -24.45678 28.42706 32455 ft 497 kts 207°
2026-04-25 06:37 -24.52202 28.39557 32438 ft 497 kts 207°
2026-04-25 06:37 -24.58736 28.36400 32427 ft 497 kts 207°
2026-04-25 06:38 -24.65251 28.33248 32432 ft 497 kts 208°
2026-04-25 06:38 -24.71778 28.30087 32430 ft 497 kts 208°
2026-04-25 06:39 -24.78286 28.26931 32430 ft 497 kts 208°
2026-04-25 06:39 -24.84824 28.23758 32430 ft 497 kts 208°
2026-04-25 06:40 -24.91344 28.20589 32430 ft 496 kts 208°
2026-04-25 06:40 -24.97874 28.17412 32430 ft 496 kts 208°
2026-04-25 06:41 -25.04384 28.14241 32430 ft 496 kts 208°
2026-04-25 06:41 -25.10936 28.11047 32429 ft 496 kts 208°
2026-04-25 06:42 -25.17666 28.07759 32427 ft 496 kts 208°
2026-04-25 06:42 -25.24144 28.04592 32427 ft 495 kts 208°
2026-04-25 06:43 -25.30667 28.01399 32427 ft 496 kts 208°
2026-04-25 06:43 -25.37154 27.98220 32427 ft 496 kts 208°
2026-04-25 06:44 -25.43671 27.95022 32426 ft 496 kts 208°
2026-04-25 06:44 -25.50130 27.91850 32436 ft 495 kts 208°
2026-04-25 06:45 -25.56623 27.88657 32455 ft 495 kts 208°
2026-04-25 06:45 -25.63147 27.85444 32476 ft 496 kts 208°
2026-04-25 06:46 -25.68603 27.82954 32478 ft 502 kts 202°
2026-04-25 06:46 -25.75514 27.80678 32480 ft 502 kts 201°
2026-04-25 06:47 -25.83554 27.78042 32480 ft 503 kts 201°
2026-04-25 06:47 -25.90462 27.75781 32481 ft 503 kts 201°
2026-04-25 06:48 -25.97372 27.73517 32481 ft 503 kts 201°
2026-04-25 06:48 -26.04278 27.71251 32480 ft 502 kts 201°
2026-04-25 06:49 -26.11201 27.68977 32478 ft 502 kts 201°
2026-04-25 06:49 -26.18098 27.66708 32478 ft 502 kts 201°
2026-04-25 06:50 -26.24969 27.64446 32477 ft 502 kts 201°
2026-04-25 06:50 -26.31901 27.62161 32487 ft 502 kts 201°
2026-04-25 06:51 -26.38800 27.59883 32499 ft 501 kts 201°
2026-04-25 06:51 -26.45292 27.56737 32506 ft 492 kts 216°
2026-04-25 06:52 -26.50597 27.51692 32509 ft 483 kts 229°
2026-04-25 06:52 -26.55530 27.46313 32503 ft 484 kts 228°
2026-04-25 06:53 -26.60518 27.40892 32503 ft 484 kts 228°
2026-04-25 06:53 -26.65484 27.35491 32503 ft 484 kts 228°
2026-04-25 06:54 -26.70473 27.30059 32511 ft 483 kts 228°
2026-04-25 06:54 -26.75441 27.24645 32511 ft 483 kts 228°
2026-04-25 06:55 -26.80389 27.19244 32511 ft 483 kts 228°
2026-04-25 06:55 -26.85360 27.13812 32511 ft 483 kts 228°
2026-04-25 06:56 -26.90317 27.08387 32510 ft 483 kts 228°
2026-04-25 06:56 -26.95276 27.02950 32509 ft 483 kts 228°
2026-04-25 06:57 -27.00222 26.97526 32510 ft 482 kts 228°
2026-04-25 06:57 -27.05173 26.92086 32511 ft 481 kts 227°
2026-04-25 06:58 -27.10115 26.86653 32509 ft 482 kts 227°
2026-04-25 06:58 -27.15056 26.81213 32504 ft 482 kts 227°
2026-04-25 06:59 -27.19982 26.75782 32504 ft 482 kts 227°
2026-04-25 06:59 -27.24918 26.70330 32505 ft 482 kts 227°
2026-04-25 07:00 -27.29864 26.64861 32506 ft 482 kts 227°
2026-04-25 07:00 -27.34765 26.59435 32492 ft 482 kts 227°
2026-04-25 07:01 -27.39710 26.53953 32465 ft 482 kts 227°
2026-04-25 07:01 -27.44641 26.48480 32438 ft 481 kts 227°
2026-04-25 07:02 -27.49568 26.43003 32429 ft 481 kts 227°
2026-04-25 07:02 -27.54469 26.37548 32421 ft 482 kts 227°
2026-04-25 07:03 -27.59384 26.32069 32431 ft 481 kts 228°
2026-04-25 07:03 -27.64284 26.26601 32431 ft 482 kts 228°
2026-04-25 07:04 -27.69202 26.21105 32432 ft 483 kts 228°
2026-04-25 07:04 -27.74123 26.15600 32430 ft 483 kts 228°
2026-04-25 07:05 -27.79052 26.10076 32432 ft 483 kts 228°
2026-04-25 07:05 -27.83979 26.04546 32430 ft 483 kts 228°
2026-04-25 07:06 -27.88893 25.99027 32426 ft 483 kts 228°
2026-04-25 07:06 -27.93794 25.93512 32427 ft 482 kts 228°
2026-04-25 07:07 -27.98731 25.87948 32424 ft 483 kts 228°
2026-04-25 07:07 -28.03644 25.82409 32418 ft 482 kts 228°
2026-04-25 07:08 -28.08550 25.76867 32412 ft 482 kts 228°
2026-04-25 07:08 -28.13420 25.71355 32404 ft 483 kts 228°
2026-04-25 07:09 -28.18329 25.65797 32399 ft 482 kts 228°
2026-04-25 07:09 -28.23204 25.60267 32404 ft 483 kts 228°
2026-04-25 07:10 -28.28132 25.54668 32404 ft 483 kts 228°
2026-04-25 07:10 -28.33035 25.49093 32404 ft 482 kts 228°
2026-04-25 07:11 -28.37917 25.43530 32398 ft 482 kts 228°
2026-04-25 07:11 -28.42782 25.37983 32395 ft 483 kts 228°
2026-04-25 07:12 -28.47693 25.32371 32404 ft 483 kts 229°
2026-04-25 07:12 -28.54966 25.24051 32404 ft 482 kts 228°
2026-04-25 07:13 -28.59865 25.18436 32401 ft 483 kts 229°
2026-04-25 07:13 -28.64721 25.12863 32403 ft 484 kts 229°
2026-04-25 07:14 -28.69608 25.07246 32405 ft 484 kts 228°
2026-04-25 07:14 -28.72019 25.04449 32393 ft 472 kts 227°
2026-04-25 07:14 -28.74417 25.01707 32398 ft 472 kts 227°
2026-04-25 07:15 -28.79207 24.96188 32397 ft 476 kts 227°
2026-04-25 07:15 -28.84004 24.90652 32398 ft 476 kts 227°
2026-04-25 07:16 -28.88804 24.85104 32402 ft 475 kts 227°
2026-04-25 07:16 -28.93589 24.79566 32398 ft 474 kts 227°
2026-04-25 07:17 -28.98368 24.74029 32395 ft 473 kts 228°
2026-04-25 07:17 -29.03159 24.68470 32399 ft 473 kts 228°
2026-04-25 07:18 -29.07891 24.62974 32395 ft 471 kts 229°
2026-04-25 07:18 -29.12643 24.57443 32394 ft 468 kts 229°
2026-04-25 07:19 -29.17339 24.51965 32394 ft 471 kts 229°
2026-04-25 07:19 -29.22064 24.46447 32394 ft 469 kts 229°
2026-04-25 07:20 -29.26787 24.40931 32398 ft 470 kts 229°
2026-04-25 07:20 -29.31505 24.35406 32397 ft 471 kts 229°
2026-04-25 07:21 -29.36229 24.29867 32400 ft 469 kts 230°
2026-04-25 07:21 -29.40913 24.24371 32402 ft 470 kts 230°
2026-04-25 07:22 -29.45620 24.18833 32401 ft 469 kts 230°
2026-04-25 07:22 -29.50297 24.13336 32405 ft 470 kts 230°
2026-04-25 07:23 -29.54999 24.07791 32401 ft 472 kts 230°
2026-04-25 07:23 -29.59700 24.02242 32402 ft 469 kts 230°
2026-04-25 07:24 -29.64409 23.96673 32396 ft 469 kts 230°
2026-04-25 07:24 -29.69148 23.91064 32399 ft 470 kts 230°
2026-04-25 07:25 -29.73815 23.85526 32400 ft 470 kts 230°
2026-04-25 07:25 -29.78464 23.80012 32398 ft 469 kts 230°
2026-04-25 07:26 -29.83126 23.74473 32397 ft 470 kts 230°
2026-04-25 07:26 -29.87816 23.68887 32392 ft 469 kts 230°
2026-04-25 07:27 -29.92492 23.63312 32400 ft 469 kts 230°
2026-04-25 07:27 -29.97158 23.57739 32393 ft 469 kts 230°
2026-04-25 07:28 -30.01811 23.52180 32394 ft 470 kts 230°
2026-04-25 07:28 -30.06493 23.46569 32394 ft 470 kts 230°
2026-04-25 07:29 -30.11168 23.40964 32390 ft 469 kts 230°
2026-04-25 07:29 -30.15785 23.35417 32394 ft 471 kts 230°
2026-04-25 07:30 -30.20474 23.29780 32399 ft 468 kts 230°
2026-04-25 07:30 -30.25097 23.24212 32402 ft 470 kts 230°
2026-04-25 07:31 -30.29761 23.18586 32399 ft 469 kts 230°
2026-04-25 07:31 -30.34397 23.12984 32401 ft 468 kts 230°
2026-04-25 07:32 -30.39049 23.07361 32405 ft 469 kts 230°
2026-04-25 07:32 -30.43670 23.01760 32400 ft 470 kts 230°
2026-04-25 07:33 -30.48327 22.96116 32384 ft 469 kts 231°
2026-04-25 07:33 -30.52976 22.90467 32382 ft 471 kts 231°
2026-04-25 07:34 -30.57640 22.84791 32401 ft 472 kts 231°
2026-04-25 07:34 -30.62281 22.79137 32401 ft 471 kts 231°
2026-04-25 07:35 -30.66944 22.73440 32373 ft 474 kts 232°
2026-04-25 07:35 -30.71612 22.67734 32334 ft 473 kts 231°
2026-04-25 07:36 -30.76283 22.62015 32307 ft 473 kts 231°
2026-04-25 07:36 -30.80926 22.56322 32275 ft 473 kts 232°
2026-04-25 07:37 -30.85584 22.50604 32256 ft 473 kts 232°
2026-04-25 07:37 -30.90267 22.44846 32260 ft 472 kts 232°
2026-04-25 07:38 -30.94903 22.39140 32259 ft 473 kts 232°
2026-04-25 07:38 -30.99521 22.33443 32269 ft 469 kts 233°
2026-04-25 07:39 -31.04131 22.27748 32269 ft 467 kts 233°
2026-04-25 07:39 -31.08710 22.22079 32217 ft 467 kts 233°
2026-04-25 07:40 -31.13314 22.16375 32143 ft 468 kts 233°
2026-04-25 07:40 -31.17906 22.10675 32074 ft 468 kts 233°
2026-04-25 07:41 -31.22495 22.04973 32020 ft 469 kts 233°
2026-04-25 07:41 -31.27104 21.99235 32021 ft 469 kts 233°
2026-04-25 07:42 -31.31709 21.93495 32021 ft 469 kts 233°
2026-04-25 07:42 -31.36296 21.87769 32018 ft 469 kts 233°
2026-04-25 07:43 -31.40876 21.82043 32017 ft 469 kts 233°
2026-04-25 07:43 -31.45448 21.76315 32019 ft 468 kts 233°
2026-04-25 07:44 -31.50051 21.70542 32019 ft 469 kts 233°
2026-04-25 07:44 -31.54641 21.64776 32016 ft 469 kts 233°
2026-04-25 07:45 -31.59210 21.59027 32016 ft 468 kts 233°
2026-04-25 07:45 -31.63812 21.53228 32016 ft 469 kts 233°
2026-04-25 07:46 -31.68382 21.47459 32014 ft 468 kts 233°
2026-04-25 07:46 -31.72942 21.41696 32014 ft 469 kts 233°
2026-04-25 07:47 -31.77518 21.35905 32017 ft 468 kts 233°
2026-04-25 07:47 -31.82060 21.30144 32027 ft 468 kts 233°
2026-04-25 07:48 -31.86613 21.24362 32027 ft 468 kts 233°
2026-04-25 07:48 -31.91159 21.18582 32028 ft 469 kts 233°
2026-04-25 07:49 -31.95698 21.12798 32028 ft 468 kts 233°
2026-04-25 07:49 -32.00269 21.06967 32028 ft 468 kts 233°
2026-04-25 07:50 -32.04816 21.01158 32025 ft 467 kts 233°
2026-04-25 07:50 -32.09346 20.95361 32025 ft 466 kts 234°
2026-04-25 07:51 -32.13867 20.89565 32018 ft 467 kts 234°
2026-04-25 07:51 -32.18386 20.83760 32017 ft 466 kts 234°
2026-04-25 07:52 -32.22885 20.77974 32017 ft 468 kts 234°
2026-04-25 07:52 -32.27446 20.72098 32016 ft 467 kts 234°
2026-04-25 07:53 -32.31955 20.66279 32017 ft 467 kts 234°
2026-04-25 07:53 -32.36475 20.60440 32021 ft 467 kts 234°
2026-04-25 07:54 -32.40976 20.54616 32032 ft 467 kts 234°
2026-04-25 07:54 -32.45484 20.48770 32045 ft 466 kts 234°
2026-04-25 07:55 -32.49950 20.42973 32056 ft 465 kts 234°
2026-04-25 07:55 -32.54444 20.37127 32059 ft 464 kts 234°
2026-04-25 07:56 -32.58921 20.31295 32070 ft 464 kts 234°
2026-04-25 07:56 -32.63394 20.25461 32072 ft 465 kts 234°
2026-04-25 07:57 -32.67858 20.19627 32069 ft 464 kts 234°
2026-04-25 07:57 -32.72302 20.13813 32070 ft 465 kts 234°
2026-04-25 07:58 -32.76776 20.07946 32063 ft 464 kts 234°
2026-04-25 07:58 -32.81223 20.02106 32064 ft 464 kts 234°
2026-04-25 07:59 -32.85681 19.96243 32063 ft 464 kts 234°
2026-04-25 07:59 -32.90113 19.90406 32064 ft 465 kts 234°
2026-04-25 08:00 -32.94556 19.84546 32056 ft 464 kts 234°
2026-04-25 08:00 -32.98983 19.78699 32051 ft 462 kts 235°
2026-04-25 08:01 -33.03433 19.72813 32050 ft 461 kts 236°
2026-04-25 08:01 -33.07819 19.67001 32049 ft 460 kts 236°
2026-04-25 08:02 -33.12199 19.61182 32035 ft 457 kts 237°
2026-04-25 08:02 -33.16562 19.55371 32039 ft 458 kts 236°
2026-04-25 08:03 -33.20939 19.49538 32039 ft 459 kts 237°
2026-04-25 08:03 -33.25333 19.43779 32037 ft 461 kts 235°
2026-04-25 08:04 -33.29296 19.37652 32042 ft 451 kts 242°
2026-04-25 08:04 -33.33173 19.31527 32058 ft 452 kts 241°
2026-04-25 08:05 -33.37093 19.25398 32053 ft 453 kts 241°
2026-04-25 08:05 -33.41062 19.19241 32052 ft 456 kts 239°
2026-04-25 08:06 -33.45501 19.13502 32050 ft 460 kts 236°
2026-04-25 08:06 -33.50031 19.07719 32050 ft 462 kts 236°
2026-04-25 08:07 -33.54534 19.01975 32049 ft 463 kts 236°
2026-04-25 08:07 -33.59088 18.96164 32046 ft 463 kts 236°
2026-04-25 08:08 -33.62866 18.91334 32050 ft 463 kts 236°
2026-04-25 08:08 -33.68105 18.84631 32539 ft 464 kts 236°
2026-04-25 08:09 -33.72629 18.78877 32153 ft 470 kts 233°
2026-04-25 08:09 -33.75184 18.76319 31234 ft 450 kts 224°
2026-04-25 08:09 -33.77917 18.74482 30411 ft 440 kts 213°
2026-04-25 08:10 -33.80951 18.73202 29681 ft 462 kts 205°
2026-04-25 08:10 -33.84179 18.72253 28926 ft 471 kts 199°
2026-04-25 08:10 -33.87553 18.71807 28167 ft 486 kts 189°
2026-04-25 08:10 -33.91041 18.72009 27414 ft 497 kts 180°
2026-04-25 08:11 -33.94548 18.72875 26654 ft 504 kts 170°
2026-04-25 08:11 -33.95729 18.73323 26394 ft 509 kts 167°
2026-04-25 08:11 -34.00029 18.75683 25370 ft 497 kts 155°
2026-04-25 08:11 -34.01041 18.76392 25120 ft 496 kts 153°
2026-04-25 08:12 -34.06663 18.81525 23574 ft 486 kts 145°
2026-04-25 08:12 -34.07559 18.82380 23319 ft 480 kts 145°
2026-04-25 08:12 -34.10252 18.84961 22554 ft 480 kts 145°
2026-04-25 08:12 -34.12027 18.86660 22047 ft 481 kts 145°